Location: Hermaringen
(48.5952°N, 10.2585°E)
Time: 00:39:15
(UTC+00:00)

ATLAS 5 CENTAUR R/B - Pass Details

Date: 18 November 2025
Orbit: 373 x 1090 km, 63.3° (Epoch: 04 December)

Event Time Altitude Azimuth Distance (km) Brightness Sun altitude
Rises 16:04:54 0° 316° (NW) 2,720 5.1 -5.1°
Reaches altitude 10° 16:06:55 10° 314° (NW) 1,921 4.4 -5.4°
Maximum altitude 16:11:14 67° 232° (SW) 743 2.3 -6.1°
Drops below altitude 10° 16:16:36 10° 151° (SSE) 2,378 4.5 -6.9°
Sets 16:19:20 0° 149° (SSE) 3,430 5.3 -7.3°
